DELTA 1 DEB

Satellite information

Favourite Embed

Satellite Type and Status

DEBRISIN ORBIT

Key statistics

Satellite DELTA 1 DEB at a glance.

Uptime

17394

Days in orbit

Revolutions

≈ 14.0

Per day

Orbit

SSO

Sun Synchronous Orbit

Inclination

99.1

Latest

Satellite identification and parameters

Extended collection of information and parameters for DELTA 1 DEB.

Object identification

Identified? True

Debris? True

Object name: DELTA 1 DEB

International designator: 1978-026AF

Object number (NORAD): 12190

Object ID (CCSDS): 12190

Country: UNITED STATES OF AMERICA (US)

Current information (Y/N): Y

RCS size: SMALL

Orbital parameters

Period: 102.686 minutes

Inclination: 99.0553 deg

SMA: 7263.869 km

Apoapsis: 898.908 km

Periapsis: 872.559 km

RAAN: 242.3808 deg

Eccentricy: 0.0018137

Argument of periapsis: 186.5104 deg

Mean anomaly: 328.1512 deg

Mean motion: 14.02331796 rev/day

Mean motion (dot): 0.0000068 rev/day2

B* drag term: 0.00047185 1/REarth

Two-line elements (TLE)

Creation date: Oct. 17, 2025, 7:56 p.m.

Reference frame: TEME

Reference center: EARTH

Epoch: Oct. 17, 2025, 8 a.m. UTC

TLE line 0: 0 DELTA 1 DEB

TLE line 1: 1 12190U 78026AF 25290.33342074 .00000680 00000-0 47185-3 0 9992

TLE line 2: 2 12190 99.0553 242.3808 0018137 186.5104 328.1512 14.02331796282749

Live tracking on map

Real-time ground track for satellite DELTA 1 DEB.

In-orbit conjunctions

A list of the most updated potential collisions computed for object DELTA 1 DEB.

Target Orbit TCA Probability of collision Miss distance Type
COSMOS 1275 DEB LEO 2025-07-25 09:47:04 0.0001151541 15.0 (m) DEBRIS

Associated space launch

Earth observation satellite

DELTA 1 DEB was lifted into orbit during the mission ‘Delta 2910 | Landsat 3’, on board a Delta 2910 space rocket.

The launch took place on March 5, 1978, 5:54 p.m. from Space Launch Complex 2W.

For more information about the launch, click the button.

Launch to space Delta 2910 | Landsat 3
Delta 2910 | Landsat 3

Agency: N/A

Status: Launch Successful

Launch date: March 5, 1978, 5:54 p.m. UTC

Rocket: Delta 2910

Launch pad: Space Launch Complex 2W

Location: Vandenberg SFB, CA, USA

...

Latest news about this satellite

There are no fresh news available about this satellite. Check back as we update our databases every day.


Newsletter sign-up

Weekly statistics, charts and insights to help you stay on top of the space industry.